Flag for Germany

Past Weather in Riesa, Saxony, Germany — Yesterday and Last 2 Weeks

Now
77 °F

Passing clouds.


Feels Like: 79 °F
Forecast: 69 / 55 °F
Wind: 17 mph from Southwest

Location: Dresden-Klotzsche

Current Time: Jul 5, 2020 at 8:15:43 pm

Latest Report: Jul 5, 2020 at 7:50 pm


Visibility: N/A

Pressure: 29.86 "Hg

Humidity: 54%

Dew Point: 59 °F

Location of RiesaLocation

Past Weather in Riesa — Graph

°F

Riesa Temperature Yesterday

Maximum temperature yesterday: 81 °F (at 5:50 pm)
Minimum temperature yesterday: 57 °F (at 2:50 am)
Average temperature yesterday: 70 °F

High & Low Weather Summary for the Past Weeks

 TemperatureHumidityPressure
High86 °F (Jun 27, 1:20 pm)100% (Jun 25, 1:20 am)30.27 "Hg (Jun 25, 1:20 am)
Low54 °F (Jun 24, 4:50 am)31% (Jun 23, 5:20 pm)29.71 "Hg (Jul 1, 7:20 pm)
Average68 °F63%30.00 "Hg
* Reported Jun 20 6:20 pm — Jul 5 6:50 pm, Riesa. Weather by CustomWeather, © 2020

Note: Actual official high and low records may vary slightly from our data, if they occured in-between our weather recording intervals... More about our weather records

Riesa Weather History for the Previous 24 Hours

Scroll right to see more
 ConditionsComfort  
Time TempWeatherWind HumidityBarometerVisibility
6:50 pm
Sun, Jul 5
79 °FScattered clouds.16 mph51%29.86 "HgN/A
6:20 pm79 °FPartly sunny.15 mph51%29.89 "HgN/A
5:50 pm81 °FPartly sunny.16 mph48%29.89 "HgN/A
5:20 pm79 °FPassing clouds.15 mph51%29.89 "HgN/A
4:50 pm77 °FPassing clouds.18 mph54%29.89 "HgN/A
4:20 pm79 °FScattered clouds.15 mph51%29.89 "HgN/A
3:50 pm77 °FScattered clouds.16 mph54%29.92 "HgN/A
3:20 pm77 °FPartly sunny.15 mph54%29.92 "HgN/A
2:20 pm79 °FPartly sunny.16 mph48%29.92 "HgN/A
1:50 pm79 °FPartly sunny.20 mph48%29.92 "HgN/A
1:20 pm77 °FPartly sunny.17 mph51%29.92 "HgN/A
12:50 pm79 °FPartly sunny.18 mph48%29.92 "HgN/A
12:20 pm77 °FScattered clouds.14 mph51%29.92 "HgN/A
11:50 am77 °FScattered clouds.14 mph54%29.92 "HgN/A
11:20 am79 °FPassing clouds.13 mph51%29.92 "HgN/A
10:50 am77 °FPassing clouds.13 mph51%29.92 "HgN/A
10:20 am75 °FPassing clouds.12 mph54%29.95 "HgN/A
9:50 am73 °FPassing clouds.12 mph57%29.95 "HgN/A
9:20 am72 °FPassing clouds.12 mph57%29.95 "HgN/A
8:50 am72 °FPassing clouds.12 mph57%29.95 "HgN/A
8:20 am72 °FPassing clouds.10 mph57%29.95 "HgN/A
7:50 am72 °FSunny.13 mph53%29.95 "Hg10 mi
7:20 am70 °FScattered clouds.13 mph57%29.95 "HgN/A
6:50 am70 °FSunny.12 mph57%29.95 "Hg10 mi
6:20 am70 °FSunny.13 mph57%29.95 "Hg10 mi
5:50 am70 °FSunny.12 mph57%29.95 "Hg10 mi
5:20 am68 °FPassing clouds.10 mph56%29.95 "HgN/A
4:50 am68 °FPassing clouds.9 mph56%29.95 "HgN/A
4:20 am68 °FPassing clouds.9 mph56%29.95 "HgN/A
3:50 am68 °FPassing clouds.9 mph56%29.95 "HgN/A
3:20 am68 °FClear.8 mph53%29.95 "Hg10 mi
2:50 am68 °FClear.8 mph53%29.95 "Hg10 mi
2:20 am66 °FClear.8 mph56%29.95 "Hg10 mi
1:50 am70 °FClear.8 mph53%29.98 "Hg10 mi
1:20 am70 °FClear.8 mph53%29.98 "Hg10 mi
12:50 am72 °FClear.8 mph50%29.98 "Hg10 mi
12:20 am72 °FPassing clouds.7 mph50%29.98 "HgN/A
11:50 pm
Sat, Jul 4
72 °FPassing clouds.6 mph47%29.98 "HgN/A
11:20 pm72 °FPassing clouds.6 mph47%29.98 "HgN/A
10:50 pm72 °FClear.7 mph47%29.98 "Hg10 mi
10:20 pm72 °FClear.7 mph47%29.98 "Hg10 mi
9:50 pm72 °FClear.7 mph47%29.98 "Hg10 mi
9:20 pm73 °FPassing clouds.6 mph44%29.98 "HgN/A
8:50 pm75 °FPassing clouds.9 mph41%29.95 "HgN/A
8:20 pm75 °FPassing clouds.8 mph41%29.98 "HgN/A
Weather by CustomWeather, © 2020

See weather overview